Wind_Speed
19 19 18 18 17 16 15 13 13 12 11 9 8 9 8 7 6 6 5 5 6 6 6 7 8 8 9 9 9 10 10 10 10 11 11 12 13 13 13 14 14 15 15 16
19 18 18 17 16 15 14 12 12 11 10 9 8 7 7 6 5 5 6 6 5 5 6 7 7 8 8 9 9 9 9 10 10 11 11 12 13 13 13 14 14 15 16 16
18 18 17 17 16 14 13 11 10 9 9 8 8 7 6 5 4 4 5 6 5 5 5 6 7 8 8 9 9 9 10 10 11 11 11 12 13 13 13 14 15 15 16 16
18 17 16 15 13 13 12 10 10 9 9 8 8 6 5 4 3 4 4 4 5 5 5 6 7 7 8 9 9 9 10 11 11 11 11 12 13 13 14 14 15 15 16 16
17 16 15 14 13 13 11 10 10 9 9 8 8 6 4 3 3 3 3 4 4 5 5 6 6 7 8 9 9 9 10 11 11 11 12 13 13 14 14 15 15 16 16 16
16 15 15 13 13 12 11 11 9 9 8 8 7 6 4 3 3 3 4 4 4 5 6 6 6 7 8 8 9 10 10 11 12 12 12 13 14 14 15 15 16 16 16 17
15 14 13 13 13 13 12 11 10 9 8 8 7 5 4 3 2 3 4 4 5 5 6 6 7 7 8 9 9 10 11 11 12 12 13 13 14 15 15 16 16 16 16 16
14 14 13 13 13 12 11 11 11 9 8 7 6 5 4 3 3 3 4 4 5 6 6 7 7 8 8 9 10 11 12 12 13 13 14 14 14 15 16 16 16 17 16 16
13 12 12 12 11 10 10 9 8 8 7 5 5 4 4 3 4 4 5 5 5 6 6 7 8 8 9 10 11 12 13 13 13 14 15 15 15 15 16 16 17 17 17 16
12 11 11 10 9 9 8 7 7 6 5 4 4 5 4 5 4 5 5 6 7 7 7 8 8 8 9 10 11 13 13 14 14 15 16 16 16 17 17 17 17 17 17 17
11 10 9 9 8 7 6 5 4 4 4 4 4 5 4 5 5 6 6 6 7 8 8 9 9 10 10 11 12 13 14 14 15 16 17 17 18 18 18 18 18 18 18 18
10 9 8 7 6 6 5 4 4 3 3 3 4 4 4 5 6 6 7 8 9 9 10 10 11 12 12 13 14 15 15 16 17 17 18 18 19 19 19 19 20 20 19 19
8 8 7 6 5 4 3 3 3 2 2 3 4 4 5 6 7 8 8 9 10 10 11 11 12 13 14 15 15 16 17 18 19 19 19 20 20 21 21 21 21 21 21 20
7 7 7 6 5 4 3 3 2 1 2 3 3 5 5 7 8 9 10 11 11 12 13 12 13 14 15 16 17 18 19 20 20 21 21 22 22 23 23 23 23 22 22 22
7 6 6 5 4 4 3 2 2 1 2 3 5 5 7 8 9 11 12 12 13 14 14 15 15 16 17 18 19 20 21 22 22 23 23 24 24 25 25 25 25 25 24 24
6 6 5 5 4 4 3 2 2 3 4 5 6 7 8 10 11 12 12 13 14 15 16 17 18 18 19 20 21 22 23 24 24 25 26 26 27 27 27 27 28 27 27 26
6 5 5 5 4 4 3 3 4 5 6 7 8 9 10 11 12 13 14 14 15 16 17 18 20 20 21 22 24 25 26 26 27 28 29 29 29 30 30 30 30 30 30 29
6 6 6 6 6 6 5 6 6 7 8 9 10 11 12 13 14 15 16 17 18 19 19 20 21 22 23 24 26 27 28 29 30 31 32 32 32 32 33 33 33 32 32 32
7 7 7 7 8 7 7 8 9 9 9 10 12 13 14 15 16 18 19 20 21 21 22 24 25 26 27 28 29 30 32 33 34 35 35 36 36 35 36 36 35 35 35 34
9 9 10 10 10 10 10 10 11 12 12 13 14 16 17 18 19 20 21 23 24 25 26 27 29 30 30 31 32 34 35 36 38 39 39 39 39 39 39 39 38 38 37 37
12 12 12 13 13 13 13 13 14 15 15 16 17 19 20 21 23 24 25 26 27 28 30 31 32 33 34 35 36 38 39 40 40 41 41 41 41 41 41 41 41 41 40 40
15 15 15 15 16 16 16 16 17 18 19 19 20 21 22 24 25 26 28 29 31 32 33 34 35 36 38 39 40 40 41 42 43 43 43 43 43 43 43 43 43 42 42 42
18 18 18 18 18 18 19 19 20 21 21 22 23 24 25 27 28 30 31 32 34 35 36 37 39 40 41 42 42 43 44 45 45 45 45 45 45 45 45 44 44 43 43 42
22 21 22 21 21 22 22 22 23 23 24 25 25 27 28 29 31 33 34 35 36 37 39 40 41 43 44 44 44 46 46 47 47 47 46 46 46 45 45 44 44 43 43 43
24 24 25 25 25 25 25 25 26 26 27 27 28 30 31 33 34 36 36 37 39 40 41 42 43 45 46 47 47 48 48 48 48 48 47 47 47 47 46 45 44 44 43 44
27 28 29 28 28 28 28 28 29 29 30 31 32 33 34 35 36 38 39 40 41 42 43 44 46 47 48 49 49 49 49 49 50 49 49 48 48 48 48 47 46 45 44 44
Wind_Direction
164 168 174 180 184 187 191 197 204 207 212 217 213 215 219 222 232 244 262 272 277 281 280 282 281 283 286 286 285 286 290 296 302 307 314 320 323 324 325 328 332 335 337 338
158 164 170 175 179 183 187 192 196 200 205 204 198 198 206 218 233 253 271 280 286 288 293 290 284 282 283 284 285 286 289 295 299 305 312 318 323 324 325 327 330 334 337 339
154 159 164 169 173 178 181 185 187 189 184 186 187 196 205 226 243 264 282 289 293 296 296 291 285 284 282 282 285 289 291 294 297 303 309 316 321 324 325 328 330 333 336 339
148 152 158 162 167 171 175 174 171 169 171 175 178 194 207 225 252 277 295 293 292 294 293 291 287 285 285 285 287 292 294 295 296 301 308 312 318 323 326 328 330 333 335 339
143 147 149 152 154 154 157 158 159 161 164 168 171 182 191 212 246 273 290 298 299 299 299 295 289 288 288 290 290 292 294 297 298 300 306 310 316 321 324 327 330 331 334 338
138 142 144 146 149 147 145 145 146 151 155 170 172 180 188 208 236 269 289 298 304 302 302 298 292 290 291 293 295 295 296 298 299 300 304 308 314 319 323 325 328 330 332 335
133 135 136 140 140 140 141 140 140 147 158 172 176 188 199 215 251 281 291 298 301 301 302 298 292 292 295 297 296 296 297 298 300 299 301 305 310 316 320 323 326 328 331 333
128 132 132 134 136 137 142 144 149 156 163 168 180 200 212 238 268 281 291 299 304 307 307 304 299 296 296 298 297 296 296 295 298 299 300 303 308 312 316 320 323 325 326 329
127 130 130 129 130 135 139 144 147 153 157 173 194 207 228 247 263 278 292 300 311 312 314 315 310 304 301 300 298 298 297 297 298 299 301 303 307 310 313 317 320 321 323 324
126 129 131 133 133 133 137 138 143 150 162 184 197 216 233 248 260 271 283 298 305 309 312 314 314 311 307 304 301 300 302 300 300 299 300 303 305 307 309 312 316 318 319 321
130 131 132 134 137 139 140 139 138 146 161 182 213 230 245 258 270 277 284 295 298 302 307 310 311 310 309 308 306 304 304 304 303 302 302 303 304 306 308 308 310 313 314 316
136 135 137 139 140 139 138 144 149 161 177 202 232 244 257 264 272 279 285 290 296 300 302 304 305 306 306 307 307 307 306 305 304 304 304 303 303 303 304 305 307 309 309 310
142 142 144 147 150 153 151 155 162 173 199 229 250 262 273 277 281 285 289 293 296 297 299 299 301 302 304 305 305 305 305 305 304 305 306 304 302 301 301 302 303 305 306 306
150 154 158 166 167 164 164 168 181 195 231 257 268 277 285 287 289 292 295 296 296 295 298 300 300 301 302 302 302 303 303 303 303 304 304 304 302 300 299 299 299 301 302 302
166 168 173 178 181 181 181 194 218 245 275 282 289 292 296 297 302 303 300 298 297 296 296 298 301 301 301 301 301 301 302 302 302 303 304 303 302 301 298 297 296 296 297 297
179 184 191 200 206 211 225 247 271 290 300 301 302 304 307 307 310 312 309 304 301 299 299 299 301 302 300 299 300 301 300 300 300 301 301 301 300 300 298 296 295 293 293 293
200 205 214 228 241 252 260 279 293 301 307 309 309 309 311 310 311 313 315 311 307 303 301 301 301 303 302 301 300 300 300 300 300 299 298 297 297 297 296 295 293 291 290 290
220 225 235 246 259 267 275 283 292 298 304 307 307 308 309 308 308 310 312 312 308 304 303 302 302 303 303 302 301 300 300 300 299 298 297 296 295 294 293 292 291 288 287 287
235 241 247 255 265 273 279 285 291 296 302 304 305 306 306 307 307 308 309 310 310 307 305 304 304 304 304 304 302 301 300 300 299 298 297 296 294 292 291 290 289 287 285 283
248 252 256 262 268 274 280 286 291 295 300 303 304 305 306 306 305 306 306 307 308 307 306 305 304 303 303 303 302 301 301 300 299 299 298 296 294 292 290 289 287 285 282 281
254 258 262 266 270 276 282 285 291 294 300 302 303 304 304 305 305 305 305 306 306 305 305 304 303 302 302 301 301 301 300 300 300 299 298 296 294 292 290 288 286 284 281 279
257 261 264 269 273 278 282 285 290 294 298 300 301 302 303 304 305 305 305 305 305 305 305 304 303 303 302 301 301 300 300 300 300 299 297 296 294 292 290 288 285 283 281 279
260 263 266 270 275 279 282 286 289 293 295 297 299 300 301 303 304 305 304 304 304 304 304 304 304 303 303 302 301 301 300 300 299 299 298 296 295 292 290 288 285 283 280 278
262 265 268 271 274 278 282 285 287 290 293 296 297 299 300 302 303 304 304 304 303 303 304 304 304 304 304 303 301 301 301 300 300 299 299 298 296 293 291 288 286 283 279 277
264 266 268 271 275 278 282 285 287 290 292 294 296 298 300 301 303 304 305 304 304 303 304 304 304 304 303 303 302 301 301 301 300 300 299 298 296 294 291 288 285 282 280 276
265 266 268 271 275 278 281 284 287 289 291 293 295 297 299 300 302 303 304 304 304 304 303 304 304 304 303 303 303 302 301 301 300 300 299 297 296 294 291 288 285 282 279 276
Height
5815 5820 5824 5828 5832 5836 5839 5843 5845 5848 5849 5851 5852 5853 5854 5855 5856 5856 5857 5857 5857 5857 5857 5857 5857 5857 5856 5856 5856 5855 5854 5853 5852 5851 5849 5847 5845 5843 5841 5838 5835 5832 5829 5825
5817 5821 5825 5828 5832 5835 5839 5842 5844 5846 5848 5850 5851 5852 5853 5854 5855 5855 5856 5856 5856 5856 5856 5855 5856 5855 5855 5855 5854 5854 5853 5852 5851 5849 5848 5846 5844 5842 5839 5837 5834 5831 5827 5824
5818 5823 5826 5829 5832 5835 5838 5841 5844 5845 5847 5849 5851 5852 5853 5854 5854 5855 5855 5855 5855 5855 5854 5854 5854 5854 5854 5853 5853 5852 5851 5850 5849 5848 5846 5844 5842 5840 5838 5835 5832 5829 5826 5822
5820 5824 5827 5830 5833 5836 5839 5841 5843 5845 5848 5850 5852 5853 5853 5853 5854 5854 5854 5854 5854 5853 5853 5853 5853 5853 5852 5852 5851 5850 5850 5849 5847 5846 5845 5843 5841 5839 5836 5834 5831 5828 5824 5821
5823 5826 5829 5831 5834 5836 5839 5841 5843 5845 5848 5850 5852 5853 5853 5853 5853 5853 5853 5853 5852 5852 5852 5852 5851 5851 5851 5850 5849 5849 5848 5847 5846 5844 5843 5841 5839 5837 5835 5832 5829 5826 5823 5819
5826 5828 5830 5833 5835 5837 5840 5842 5844 5846 5848 5850 5851 5853 5853 5852 5852 5852 5852 5852 5851 5851 5851 5850 5850 5849 5849 5848 5848 5847 5846 5845 5844 5843 5841 5840 5838 5835 5833 5830 5827 5824 5821 5818
5829 5831 5832 5834 5836 5839 5841 5844 5847 5848 5849 5850 5851 5852 5852 5851 5851 5851 5851 5851 5850 5850 5849 5849 5848 5848 5847 5846 5846 5845 5844 5843 5842 5840 5839 5837 5835 5833 5831 5828 5825 5823 5820 5816
5832 5834 5835 5836 5838 5840 5842 5845 5848 5850 5850 5850 5850 5850 5851 5850 5850 5850 5850 5849 5849 5848 5848 5847 5847 5846 5846 5845 5844 5843 5842 5841 5839 5838 5836 5835 5833 5831 5828 5826 5823 5821 5818 5815
5834 5836 5837 5838 5840 5842 5843 5845 5847 5848 5849 5850 5850 5850 5849 5849 5849 5849 5848 5848 5847 5847 5846 5846 5845 5844 5844 5843 5842 5841 5840 5838 5837 5835 5834 5832 5830 5828 5826 5823 5821 5818 5816 5813
5836 5838 5839 5840 5842 5843 5844 5845 5846 5848 5848 5849 5849 5848 5849 5848 5848 5847 5847 5846 5846 5845 5845 5844 5843 5842 5841 5841 5840 5838 5837 5836 5834 5833 5831 5829 5827 5825 5823 5821 5819 5816 5814 5811
5838 5840 5842 5842 5843 5844 5845 5846 5846 5847 5847 5848 5848 5849 5847 5846 5846 5845 5845 5844 5844 5843 5842 5842 5841 5840 5839 5838 5837 5836 5835 5833 5831 5830 5828 5826 5824 5822 5820 5818 5816 5814 5811 5809
5839 5841 5842 5843 5843 5844 5844 5845 5846 5847 5847 5846 5847 5849 5845 5844 5844 5843 5842 5842 5841 5841 5840 5839 5838 5837 5836 5835 5834 5833 5831 5830 5828 5826 5824 5823 5821 5819 5817 5815 5813 5810 5808 5806
5840 5842 5843 5844 5845 5845 5844 5844 5844 5845 5845 5845 5845 5847 5843 5842 5841 5841 5840 5839 5838 5838 5837 5836 5835 5834 5833 5832 5831 5829 5828 5826 5824 5822 5821 5819 5817 5815 5813 5811 5809 5806 5804 5802
5841 5842 5843 5844 5844 5843 5843 5843 5843 5844 5844 5843 5843 5842 5841 5839 5838 5837 5837 5836 5835 5834 5834 5833 5832 5831 5830 5828 5827 5825 5823 5822 5820 5818 5816 5814 5812 5810 5808 5806 5804 5802 5800 5798
5841 5841 5842 5842 5842 5842 5842 5842 5842 5842 5842 5841 5840 5839 5838 5837 5835 5834 5833 5832 5831 5830 5829 5828 5827 5826 5825 5824 5822 5821 5819 5817 5815 5813 5811 5809 5807 5805 5803 5801 5799 5797 5794 5792
5840 5841 5841 5841 5841 5841 5841 5840 5840 5839 5839 5838 5837 5836 5835 5833 5832 5830 5829 5828 5827 5826 5825 5824 5823 5822 5820 5819 5817 5815 5813 5811 5809 5807 5805 5803 5800 5798 5796 5794 5792 5790 5788 5786
5839 5839 5840 5840 5839 5839 5839 5839 5838 5837 5836 5835 5834 5834 5831 5830 5829 5827 5825 5824 5823 5821 5820 5819 5818 5816 5815 5813 5811 5809 5807 5805 5803 5800 5798 5795 5793 5791 5789 5787 5785 5783 5781 5779
5837 5837 5837 5837 5838 5837 5839 5836 5835 5834 5833 5832 5831 5830 5828 5827 5825 5823 5821 5820 5818 5817 5815 5814 5812 5810 5808 5806 5804 5802 5800 5797 5795 5792 5790 5787 5785 5782 5780 5778 5776 5774 5772 5770
5835 5835 5835 5835 5834 5835 5835 5833 5832 5831 5830 5829 5827 5826 5824 5822 5820 5819 5817 5815 5813 5811 5809 5807 5805 5803 5800 5798 5796 5793 5791 5788 5785 5783 5780 5777 5774 5772 5770 5767 5765 5763 5762 5760
5832 5832 5832 5832 5831 5831 5832 5830 5828 5828 5826 5825 5823 5821 5819 5817 5816 5814 5811 5809 5807 5805 5802 5800 5798 5795 5792 5790 5787 5784 5781 5778 5775 5772 5769 5766 5763 5760 5758 5755 5753 5751 5750 5749
5828 5828 5828 5827 5827 5827 5827 5825 5824 5824 5823 5820 5818 5816 5814 5812 5810 5808 5805 5802 5800 5797 5795 5792 5789 5786 5783 5780 5777 5773 5770 5766 5763 5759 5756 5753 5750 5747 5744 5742 5740 5738 5736 5735
5823 5823 5823 5822 5822 5824 5821 5819 5819 5818 5815 5814 5812 5810 5808 5805 5803 5800 5797 5795 5792 5789 5786 5783 5780 5777 5773 5769 5765 5761 5757 5753 5750 5746 5742 5739 5736 5733 5730 5727 5725 5723 5721 5721
5817 5818 5817 5818 5818 5816 5815 5814 5812 5811 5809 5807 5805 5803 5801 5798 5795 5792 5789 5786 5783 5780 5776 5773 5769 5765 5761 5757 5753 5748 5744 5740 5736 5732 5728 5724 5721 5717 5714 5712 5710 5708 5706 5705
5811 5811 5810 5810 5809 5809 5808 5806 5805 5804 5802 5800 5798 5795 5793 5790 5787 5784 5780 5777 5773 5769 5765 5762 5757 5753 5749 5744 5739 5735 5730 5725 5721 5717 5713 5709 5705 5702 5699 5696 5694 5691 5690 5689
5804 5803 5802 5802 5801 5800 5800 5798 5797 5796 5793 5791 5789 5786 5783 5781 5777 5774 5770 5766 5762 5758 5754 5749 5745 5740 5735 5730 5725 5720 5715 5710 5706 5701 5697 5694 5690 5686 5683 5680 5678 5676 5674 5672
5795 5794 5794 5793 5793 5792 5791 5790 5788 5786 5784 5782 5780 5777 5774 5771 5767 5763 5759 5755 5751 5746 5742 5737 5732 5727 5721 5716 5711 5705 5700 5695 5690 5686 5682 5678 5673 5670 5666 5663 5662 5660 5658 5657